Theta_e
310 310 310 312 313 313 313 311 310 308 306 305 303 302 302 302 302 302 302 303 302 301 302 303 304 306 310 313 313 313 313 313 313 314 314 313 314 314 314 313 315 319 325
307 309 309 312 312 312 313 311 310 308 306 305 303 301 300 300 300 301 302 301 300 302 305 306 306 306 307 308 310 312 313 313 313 313 314 313 313 314 316 316 316 315 314
309 307 309 311 312 313 313 311 310 309 307 305 303 301 300 299 300 301 299 299 303 305 305 304 303 303 305 306 308 310 311 313 313 313 313 314 313 312 314 314 313 314 315
311 310 312 313 313 313 313 312 310 309 308 305 303 300 299 299 299 299 299 301 304 305 303 302 302 301 302 305 306 309 311 312 313 313 313 313 313 314 313 313 313 314 314
311 312 313 313 312 311 311 312 311 310 309 307 304 300 298 299 298 298 299 304 305 304 303 302 301 301 303 304 306 308 310 310 311 311 312 312 312 312 312 313 312 312 313
311 311 311 311 310 311 311 311 311 310 309 307 305 300 298 298 298 297 301 304 304 303 302 302 302 302 303 304 305 308 309 310 310 311 311 311 311 311 310 309 309 310 311
306 309 310 310 311 311 311 311 311 310 310 308 305 301 298 297 297 298 301 303 302 303 302 303 303 303 304 304 305 307 308 309 310 310 310 311 311 311 311 311 310 310 311
307 307 308 310 311 311 309 309 310 310 309 308 305 301 298 297 297 297 301 302 301 302 302 302 303 303 303 305 306 307 308 308 309 310 309 310 310 310 311 310 310 310 309
304 305 308 310 310 311 309 310 308 309 310 308 305 301 297 296 296 296 298 301 301 301 302 301 302 303 303 304 304 305 307 308 309 309 309 309 309 309 309 309 309 309 310
305 304 305 306 307 307 308 309 310 307 308 308 305 301 297 296 295 295 296 299 301 301 301 301 302 302 303 303 304 304 305 306 307 308 309 309 309 309 309 309 309 310 310
306 305 305 307 306 306 306 306 306 307 308 308 305 300 297 296 295 295 295 296 299 300 301 301 301 302 303 303 303 304 304 305 306 306 306 307 308 308 308 308 308 309 309
306 305 305 306 306 306 306 306 307 307 308 308 305 300 297 296 295 294 295 295 295 298 300 301 300 301 301 301 301 302 302 304 303 303 303 304 305 305 306 307 308 309 309
305 304 304 305 306 306 306 307 306 307 307 307 304 300 297 296 295 295 294 294 294 295 297 298 300 300 300 300 300 300 300 300 300 300 301 302 302 303 303 304 305 306 307
305 304 303 304 305 305 305 306 306 306 307 307 305 301 298 297 296 295 294 293 293 294 294 295 296 296 297 297 297 298 298 296 295 296 297 298 300 301 302 303 304 305 306
305 304 304 303 305 305 304 305 305 305 306 306 304 301 299 298 296 294 293 293 293 293 293 294 295 295 295 294 294 293 293 293 294 295 296 297 299 300 301 302 302 303 305
305 305 304 304 304 304 304 304 304 304 305 306 304 302 299 298 296 295 294 293 293 292 293 293 293 294 293 293 293 293 293 293 294 295 297 299 300 300 299 301 303 304 305
305 304 303 303 303 303 303 303 303 304 305 306 304 302 299 298 296 295 294 293 292 292 292 292 292 293 292 292 293 292 292 292 293 296 297 297 297 297 298 298 299 301 303
303 302 301 301 301 302 302 302 302 302 304 304 303 302 300 298 297 295 294 293 292 292 291 291 292 291 291 291 292 292 291 292 293 295 295 295 295 295 295 296 296 299 301
301 301 301 300 300 301 301 301 300 300 302 302 302 301 300 298 297 296 295 294 293 292 291 291 291 291 290 290 291 291 291 291 292 294 294 293 293 293 294 294 295 296 297
301 300 300 300 300 300 300 300 299 299 300 300 301 301 300 298 298 297 296 295 293 292 291 290 290 289 289 289 289 291 290 290 291 292 293 292 292 292 292 292 292 293 294
301 301 300 299 299 299 299 299 299 299 299 299 299 300 300 299 298 297 295 294 293 291 290 290 289 289 289 289 289 290 290 289 289 290 291 291 291 290 289 290 290 291 292
301 300 299 299 299 299 299 299 299 299 299 298 299 298 298 298 297 296 295 293 292 291 290 289 289 289 289 289 289 290 290 290 289 288 288 289 289 289 289 289 288 289 290
299 299 298 298 298 298 298 298 298 298 298 298 298 298 297 297 297 296 294 292 291 290 289 289 289 289 289 289 289 289 290 290 289 288 288 289 289 288 287 287 288 287 286
297 297 297 297 297 296 296 296 296 296 296 297 297 297 297 297 297 296 295 293 291 290 289 288 288 289 289 289 289 288 289 289 288 287 287 287 288 288 288 287 286 286 286
296 296 296 296 295 296 296 296 296 296 296 296 296 297 297 297 296 296 296 294 293 292 290 290 290 289 289 290 290 289 288 288 288 288 287 286 286 287 286 286 286 285 284
295 295 295 295 295 295 295 296 296 296 296 295 295 295 296 296 296 296 295 295 295 294 292 291 291 291 290 290 289 289 289 289 288 288 286 285 286 286 286 285 284 284 284
Wind_Speed
14 24 19 22 15 8 6 4 6 6 8 8 9 9 10 12 11 13 12 10 15 13 14 15 16 16 17 17 18 18 18 19 19 23 23 29 30 31 34 36 34 30 26
11 15 4 15 8 3 5 6 7 6 8 9 9 10 12 11 15 13 9 14 13 15 15 15 16 15 17 18 18 17 18 17 16 17 17 5 12 20 22 26 30 33 35
9 8 12 9 4 1 6 9 9 9 9 9 10 10 11 12 11 11 16 13 13 13 13 14 15 17 16 16 16 16 18 16 17 17 9 3 3 4 12 20 22 19 20
5 6 8 4 3 7 9 11 14 9 9 9 10 10 12 14 13 15 15 14 13 13 11 13 14 15 12 13 16 14 15 15 13 15 18 20 18 7 7 17 26 27 22
0 2 2 4 7 8 9 10 11 10 11 11 11 12 14 13 15 15 15 15 12 11 13 11 12 11 10 13 14 15 13 16 16 15 16 17 18 18 6 8 10 20 22
1 1 3 2 6 7 9 11 12 12 11 13 13 13 14 15 15 15 14 12 13 12 9 9 10 9 10 14 15 14 14 14 16 17 18 17 9 8 5 3 4 8 21
7 5 4 6 6 9 10 11 13 14 13 13 14 15 15 15 14 13 14 14 15 13 12 11 11 11 12 12 13 15 15 16 17 18 18 19 21 20 19 12 8 4 17
7 8 8 9 10 11 11 14 15 16 15 15 15 15 15 14 13 14 13 15 15 13 14 14 14 13 13 13 13 16 18 18 18 20 19 19 21 21 22 17 11 8 7
9 9 13 16 18 18 15 14 14 14 15 15 15 15 13 13 14 13 13 15 15 14 13 15 15 15 15 14 14 16 19 17 19 22 21 20 21 21 21 21 21 11 9
9 8 12 18 20 19 17 17 16 15 15 14 15 15 13 13 14 14 13 12 14 14 15 13 14 15 15 15 15 15 17 20 23 22 19 21 21 21 21 22 22 22 14
8 8 12 19 20 19 18 19 18 15 15 16 17 15 14 13 13 13 13 13 14 15 13 14 14 15 16 16 16 17 18 18 19 21 22 21 19 19 22 23 23 23 19
8 8 12 16 17 17 17 17 16 15 16 15 15 15 15 14 14 13 12 13 13 13 14 14 14 14 14 13 14 16 16 15 18 20 21 23 24 26 27 24 19 18 21
8 7 9 12 16 17 17 15 15 15 15 15 17 17 17 16 16 15 14 13 13 14 13 13 14 14 14 14 14 15 15 15 16 18 19 20 19 21 20 21 22 21 21
8 7 7 11 19 19 18 17 17 15 15 16 18 18 18 17 18 17 16 16 15 15 14 14 15 15 15 15 15 15 14 16 17 19 20 22 22 23 21 21 20 18 19
8 8 7 8 18 22 21 17 16 17 16 17 18 20 18 18 18 18 17 16 16 16 16 16 16 16 15 14 13 15 17 16 17 18 19 21 23 24 26 23 22 22 22
9 8 10 15 17 20 23 22 19 18 17 18 20 20 19 19 20 19 18 17 17 16 15 16 16 16 16 13 13 13 16 17 18 18 17 19 19 19 21 22 20 20 21
12 15 15 17 19 24 24 24 26 20 15 19 21 21 20 21 21 20 19 19 18 16 17 17 16 17 17 15 12 13 15 17 18 18 18 15 14 17 14 17 19 21 23
15 14 16 20 23 26 27 27 26 24 17 18 20 22 22 22 22 21 21 21 19 19 18 18 17 17 17 14 12 13 14 15 15 16 17 15 13 14 17 18 18 18 20
15 18 22 24 26 25 23 24 25 24 19 20 22 22 22 23 23 24 24 23 21 21 21 19 18 19 18 15 13 13 15 15 14 14 17 13 14 14 17 17 14 14 16
19 21 24 25 24 24 22 21 23 22 22 23 22 21 21 22 25 26 25 24 22 23 21 21 20 20 22 17 15 12 13 15 14 14 14 15 10 15 14 17 14 12 12
19 22 24 23 25 26 24 23 24 25 27 24 23 22 22 23 25 27 25 24 23 22 22 22 22 21 20 19 15 12 13 13 14 13 13 14 13 13 15 13 12 15 16
19 21 21 22 25 24 22 24 26 32 29 27 26 26 24 23 23 24 26 25 24 24 24 23 25 22 20 17 15 13 13 13 14 15 15 15 13 14 12 12 13 12 13
17 20 21 24 23 21 20 24 30 32 31 29 29 29 28 27 25 23 25 23 23 23 23 22 22 23 18 15 16 14 15 13 14 15 16 15 15 14 13 11 10 8 8
16 18 20 19 20 21 22 21 24 28 32 31 30 29 27 28 27 25 26 25 24 22 22 21 21 25 20 19 18 16 15 14 13 12 13 15 14 13 13 10 10 7 5
17 20 20 21 23 27 26 25 25 26 30 28 27 29 29 29 29 28 29 30 32 30 26 28 27 24 24 26 21 19 19 16 13 11 14 13 10 10 8 9 7 6 5
19 18 18 20 24 27 28 30 29 29 27 26 26 26 26 26 27 27 27 28 31 31 31 32 29 29 28 21 19 18 15 13 12 13 13 12 11 8 9 7 7 6 4
Wind_Direction
342 339 351 130 132 158 180 224 244 275 297 307 317 316 311 308 314 302 316 322 308 316 304 303 308 306 303 303 298 295 297 295 292 294 274 274 272 273 279 279 274 272 276
357 331 26 117 126 164 213 214 246 256 279 293 296 302 308 312 314 322 308 303 305 313 315 310 310 307 309 301 299 305 301 296 293 292 299 291 284 273 269 270 267 267 266
335 6 54 59 76 211 252 257 244 254 266 280 295 302 300 304 307 297 306 309 318 311 307 306 306 295 291 308 294 290 297 295 291 286 280 311 254 332 311 309 313 308 303
17 27 26 74 202 237 227 224 254 262 273 274 288 296 301 302 305 309 310 313 311 309 307 305 305 311 295 302 290 290 297 296 294 293 286 285 288 288 292 289 299 305 307
319 59 57 5 322 307 275 266 265 263 271 274 285 291 293 295 303 307 309 310 310 300 308 328 322 322 303 295 290 288 297 289 296 294 300 300 297 298 290 290 293 293 301
279 283 135 263 274 271 270 267 265 266 262 264 276 282 287 295 299 305 306 304 307 299 310 316 317 311 307 297 292 292 289 290 289 290 291 289 281 283 286 288 282 286 298
313 271 265 237 254 270 268 268 263 260 261 254 267 277 282 285 293 299 303 302 314 305 310 308 312 306 300 299 298 287 285 284 285 284 283 283 285 290 294 297 291 283 296
338 330 308 292 281 273 265 269 263 262 257 252 258 271 281 288 291 295 297 298 303 305 299 304 305 304 302 294 298 297 292 286 281 280 277 278 279 282 282 275 286 290 284
338 326 310 294 286 279 266 270 273 271 264 252 257 271 284 283 287 290 293 296 299 305 304 294 299 304 302 306 304 297 290 295 293 284 280 279 279 277 277 278 280 272 289
330 321 319 318 315 315 308 291 272 271 263 257 253 268 268 278 288 291 291 291 295 298 305 304 300 302 300 301 300 298 302 303 296 298 299 283 277 278 278 278 279 276 265
311 310 311 320 315 308 304 304 301 280 260 255 262 265 268 273 276 282 291 294 295 300 302 303 302 302 303 302 300 297 299 300 298 294 298 299 288 296 284 279 280 280 277
309 305 312 324 323 315 309 304 296 281 268 260 253 255 267 271 275 279 282 286 288 293 296 298 299 299 298 296 297 299 300 295 302 301 301 298 296 293 290 292 296 280 283
308 311 322 326 326 320 312 302 292 283 270 260 255 261 263 268 271 275 278 277 279 280 285 288 288 288 290 293 293 294 292 303 305 304 302 298 294 287 286 283 282 286 283
313 312 316 314 320 318 308 301 292 286 273 259 256 260 265 268 272 276 277 280 282 282 280 277 278 283 287 288 292 286 286 298 300 300 297 295 291 285 281 279 278 280 281
313 306 308 312 314 321 316 303 296 292 274 256 256 261 266 267 269 273 278 282 283 285 286 288 289 292 291 296 289 291 296 299 296 299 297 294 289 285 284 278 277 278 278
300 306 321 322 318 315 317 309 297 298 284 262 263 266 265 265 265 268 271 274 278 284 286 287 289 291 290 288 295 301 300 296 298 293 300 314 306 297 298 278 281 279 281
324 321 319 320 316 316 318 319 317 296 280 265 269 274 271 265 264 267 268 269 274 280 279 282 283 283 285 288 286 295 296 297 302 299 300 306 312 318 334 312 300 291 286
317 316 316 317 318 319 319 319 318 313 289 278 276 280 280 275 273 270 268 270 272 272 276 279 279 280 282 284 280 287 296 302 303 300 305 302 314 319 333 326 319 313 302
314 314 317 316 316 317 324 326 321 319 304 295 288 284 280 279 275 270 270 272 272 271 274 278 279 277 280 277 277 286 298 305 301 302 306 307 307 324 329 329 323 318 323
316 318 320 320 321 324 325 322 317 315 310 306 297 293 285 277 270 272 275 275 270 271 275 277 278 280 282 286 281 275 286 301 302 305 304 303 310 322 327 334 336 331 330
317 324 329 325 328 331 329 322 320 314 322 316 306 296 289 281 278 274 274 271 268 270 272 274 278 277 279 283 277 266 273 286 297 297 297 296 307 315 323 321 331 331 325
321 330 329 326 330 334 332 323 316 325 320 317 310 303 297 292 286 278 276 268 262 264 267 270 277 279 279 277 271 262 267 279 286 290 296 295 303 307 310 312 321 337 331
317 319 317 317 321 326 333 326 327 329 326 313 307 307 306 297 289 273 266 259 256 253 258 261 264 274 275 264 260 257 252 256 268 284 297 295 298 296 298 305 313 328 335
314 320 317 308 310 325 327 323 322 323 326 320 311 303 297 293 288 278 268 261 251 243 243 244 246 260 259 256 258 254 248 250 261 270 283 290 290 290 294 291 298 315 327
311 320 318 321 319 325 325 327 326 325 320 316 313 306 298 294 285 278 266 259 261 253 242 245 248 245 243 248 249 242 236 245 258 274 285 294 290 276 284 291 291 301 326
322 321 321 322 320 321 320 321 323 322 319 315 314 311 303 296 290 278 273 271 270 270 264 259 255 259 256 261 240 227 235 247 257 261 269 279 276 275 285 280 286 293 280